JAI83 LEPA-LEIB

Flight info

Callsign JAI83
Flight time 0h 34m
Altitude 11000
Route NELUX
Aircraft SF50/L-SDGRWY/L

Departure

Time 2026-05-06 17:15
Airport Palma de Mallorca Airport (LEPA)

Arrival

Time 2026-05-06 17:50
Airport Ibiza Airport (LEIB)
Time Latitude Longitude Altitude Speed Heading
2026-05-06 17:03 39.54127 2.72613 32 ft 0 kts 325°
2026-05-06 17:10 39.54129 2.72612 32 ft 0 kts 347°
2026-05-06 17:11 39.54155 2.72647 32 ft 7 kts 68°
2026-05-06 17:11 39.54169 2.72691 33 ft 4 kts 73°
2026-05-06 17:11 39.54174 2.72721 33 ft 5 kts 80°
2026-05-06 17:11 39.54187 2.72788 33 ft 11 kts 70°
2026-05-06 17:12 39.54208 2.72892 34 ft 11 kts 115°
2026-05-06 17:12 39.54167 2.72948 34 ft 0 kts 113°
2026-05-06 17:13 39.54164 2.72959 34 ft 8 kts 113°
2026-05-06 17:14 39.54152 2.73104 34 ft 23 kts 91°
2026-05-06 17:14 39.54177 2.73281 32 ft 18 kts 62°
2026-05-06 17:14 39.54198 2.73326 32 ft 0 kts 56°
2026-05-06 17:14 39.54205 2.73340 32 ft 15 kts 56°
2026-05-06 17:15 39.54402 2.73740 31 ft 94 kts 54°
2026-05-06 17:15 39.54788 2.74632 394 ft 124 kts 62°
2026-05-06 17:15 39.55088 2.75727 1030 ft 135 kts 76°
2026-05-06 17:15 39.55252 2.76971 1732 ft 146 kts 77°
2026-05-06 17:16 39.55608 2.78312 2239 ft 166 kts 72°
2026-05-06 17:16 39.55952 2.79741 3001 ft 166 kts 77°
2026-05-06 17:16 39.56012 2.81236 3676 ft 168 kts 94°
2026-05-06 17:16 39.55998 2.82767 4390 ft 171 kts 90°
2026-05-06 17:17 39.56003 2.84322 5069 ft 175 kts 91°
2026-05-06 17:17 39.56001 2.85912 5735 ft 178 kts 91°
2026-05-06 17:17 39.55993 2.87535 6386 ft 183 kts 91°
2026-05-06 17:17 39.55987 2.89199 7009 ft 186 kts 91°
2026-05-06 17:18 39.55978 2.90887 7658 ft 189 kts 91°
2026-05-06 17:18 39.55972 2.92594 8316 ft 191 kts 90°
2026-05-06 17:18 39.55964 2.94331 8971 ft 194 kts 91°
2026-05-06 17:18 39.55955 2.96095 9635 ft 198 kts 90°
2026-05-06 17:19 39.55948 2.97892 10257 ft 201 kts 91°
2026-05-06 17:19 39.55938 2.99718 10860 ft 204 kts 91°
2026-05-06 17:19 39.55896 3.01669 11001 ft 231 kts 94°
2026-05-06 17:19 39.55544 3.03788 11002 ft 252 kts 119°
2026-05-06 17:20 39.54288 3.05406 10999 ft 261 kts 151°
2026-05-06 17:20 39.52560 3.06033 10987 ft 262 kts 184°
2026-05-06 17:20 39.50891 3.05202 10982 ft 261 kts 220°
2026-05-06 17:20 39.49804 3.03336 10994 ft 262 kts 240°
2026-05-06 17:21 39.48899 3.01275 10996 ft 265 kts 241°
2026-05-06 17:21 39.47933 2.99268 10997 ft 268 kts 237°
2026-05-06 17:21 39.46848 2.97295 10999 ft 270 kts 235°
2026-05-06 17:21 39.45763 2.95300 10999 ft 272 kts 236°
2026-05-06 17:22 39.44700 2.93270 11005 ft 273 kts 237°
2026-05-06 17:22 39.43629 2.91229 11006 ft 275 kts 236°
2026-05-06 17:22 39.42546 2.89190 11006 ft 276 kts 236°
2026-05-06 17:22 39.41460 2.87143 11006 ft 276 kts 236°
2026-05-06 17:23 39.40374 2.85094 11003 ft 277 kts 236°
2026-05-06 17:23 39.39282 2.83039 11003 ft 277 kts 236°
2026-05-06 17:23 39.38187 2.80977 10952 ft 280 kts 236°
2026-05-06 17:23 39.37094 2.78920 10942 ft 276 kts 236°
2026-05-06 17:24 39.36004 2.76869 10943 ft 277 kts 236°
2026-05-06 17:24 39.34913 2.74817 10943 ft 277 kts 236°
2026-05-06 17:24 39.33817 2.72758 10944 ft 278 kts 236°
2026-05-06 17:24 39.32720 2.70701 10944 ft 279 kts 236°
2026-05-06 17:25 39.31620 2.68633 10937 ft 280 kts 236°
2026-05-06 17:25 39.30515 2.66565 10938 ft 280 kts 236°
2026-05-06 17:25 39.29408 2.64492 10939 ft 281 kts 236°
2026-05-06 17:25 39.28298 2.62415 10940 ft 280 kts 236°
2026-05-06 17:26 39.27196 2.60350 10938 ft 279 kts 236°
2026-05-06 17:26 39.26096 2.58294 10937 ft 278 kts 236°
2026-05-06 17:26 39.24995 2.56237 10937 ft 279 kts 236°
2026-05-06 17:26 39.23892 2.54174 10938 ft 280 kts 236°
2026-05-06 17:27 39.22785 2.52109 10935 ft 280 kts 236°
2026-05-06 17:27 39.21675 2.50038 10935 ft 281 kts 236°
2026-05-06 17:27 39.20562 2.47963 10935 ft 281 kts 236°
2026-05-06 17:27 39.19449 2.45894 10935 ft 280 kts 236°
2026-05-06 17:28 39.18343 2.43835 10934 ft 278 kts 236°
2026-05-06 17:28 39.17241 2.41784 10933 ft 279 kts 236°
2026-05-06 17:28 39.16134 2.39727 10934 ft 279 kts 236°
2026-05-06 17:28 39.15028 2.37668 10934 ft 280 kts 236°
2026-05-06 17:29 39.13917 2.35603 10933 ft 281 kts 236°
2026-05-06 17:29 39.12802 2.33536 10933 ft 281 kts 236°
2026-05-06 17:29 39.11691 2.31474 10934 ft 280 kts 236°
2026-05-06 17:29 39.10581 2.29417 10933 ft 279 kts 236°
2026-05-06 17:30 39.09471 2.27367 10927 ft 279 kts 236°
2026-05-06 17:30 39.08364 2.25316 10927 ft 279 kts 236°
2026-05-06 17:30 39.07258 2.23271 10927 ft 278 kts 236°
2026-05-06 17:30 39.06152 2.21228 10926 ft 278 kts 236°
2026-05-06 17:31 39.05045 2.19179 10924 ft 279 kts 236°
2026-05-06 17:31 39.03935 2.17128 10924 ft 280 kts 236°
2026-05-06 17:31 39.02819 2.15071 10924 ft 280 kts 236°
2026-05-06 17:31 39.01704 2.13012 10925 ft 281 kts 236°
2026-05-06 17:32 39.00599 2.10977 10926 ft 281 kts 236°
2026-05-06 17:32 38.99467 2.08896 10926 ft 280 kts 236°
2026-05-06 17:32 38.98372 2.06881 10925 ft 278 kts 236°
2026-05-06 17:32 38.97263 2.04841 10925 ft 279 kts 236°
2026-05-06 17:33 38.96150 2.02797 10925 ft 279 kts 236°
2026-05-06 17:33 38.95036 2.00748 10926 ft 280 kts 236°
2026-05-06 17:33 38.93919 1.98696 10926 ft 281 kts 236°
2026-05-06 17:33 38.92797 1.96638 10924 ft 282 kts 236°
2026-05-06 17:34 38.91675 1.94581 10921 ft 280 kts 236°
2026-05-06 17:34 38.90717 1.92432 10911 ft 277 kts 248°
2026-05-06 17:34 38.90159 1.90067 10915 ft 276 kts 257°
2026-05-06 17:34 38.89679 1.87676 10917 ft 277 kts 256°
2026-05-06 17:35 38.89181 1.85285 10920 ft 278 kts 256°
2026-05-06 17:35 38.88687 1.82885 10915 ft 278 kts 256°
2026-05-06 17:35 38.88195 1.80486 10917 ft 277 kts 256°
2026-05-06 17:36 38.87215 1.75719 10912 ft 276 kts 256°
2026-05-06 17:36 38.86723 1.73335 10916 ft 271 kts 256°
2026-05-06 17:36 38.86282 1.71211 10414 ft 230 kts 256°
2026-05-06 17:36 38.85886 1.69294 9505 ft 220 kts 257°
2026-05-06 17:37 38.85495 1.67393 8416 ft 220 kts 257°
2026-05-06 17:37 38.85103 1.65500 7419 ft 219 kts 257°
2026-05-06 17:37 38.84714 1.63619 6462 ft 219 kts 257°
2026-05-06 17:37 38.84323 1.61729 5473 ft 219 kts 255°
2026-05-06 17:38 38.83931 1.59836 4995 ft 218 kts 254°
2026-05-06 17:38 38.83505 1.57849 4996 ft 244 kts 253°
2026-05-06 17:38 38.83030 1.55745 5003 ft 246 kts 253°
2026-05-06 17:38 38.82554 1.53604 5005 ft 252 kts 253°
2026-05-06 17:39 38.82074 1.51435 5005 ft 254 kts 253°
2026-05-06 17:39 38.81591 1.49252 5005 ft 255 kts 253°
2026-05-06 17:39 38.81106 1.47060 5008 ft 256 kts 253°
2026-05-06 17:39 38.80619 1.44866 5010 ft 255 kts 253°
2026-05-06 17:40 38.80101 1.42767 4935 ft 229 kts 246°
2026-05-06 17:40 38.79388 1.41054 4179 ft 217 kts 240°
2026-05-06 17:40 38.78685 1.39377 4000 ft 216 kts 241°
2026-05-06 17:40 38.77935 1.37553 4004 ft 243 kts 240°
2026-05-06 17:41 38.77137 1.35618 4008 ft 246 kts 241°
2026-05-06 17:41 38.76326 1.33657 4007 ft 253 kts 240°
2026-05-06 17:41 38.75501 1.31669 4004 ft 251 kts 241°
2026-05-06 17:41 38.74700 1.29729 4001 ft 243 kts 240°
2026-05-06 17:42 38.73940 1.27802 3992 ft 241 kts 248°
2026-05-06 17:42 38.73588 1.25813 3782 ft 214 kts 261°
2026-05-06 17:42 38.73381 1.23932 3030 ft 214 kts 262°
2026-05-06 17:42 38.73180 1.22013 2992 ft 230 kts 262°
2026-05-06 17:43 38.72961 1.19952 3000 ft 233 kts 262°
2026-05-06 17:43 38.72742 1.17865 2998 ft 239 kts 262°
2026-05-06 17:43 38.72517 1.15742 2998 ft 242 kts 262°
2026-05-06 17:43 38.72295 1.13611 2995 ft 241 kts 262°
2026-05-06 17:44 38.72404 1.11508 2970 ft 241 kts 292°
2026-05-06 17:44 38.73482 1.09946 2968 ft 236 kts 332°
2026-05-06 17:44 38.75041 1.09645 2977 ft 227 kts 14°
2026-05-06 17:44 38.76472 1.10443 2988 ft 226 kts 31°
2026-05-06 17:45 38.77790 1.11499 2982 ft 218 kts 44°
2026-05-06 17:45 38.78582 1.13102 2986 ft 212 kts 69°
2026-05-06 17:45 38.79015 1.14900 2985 ft 211 kts 75°
2026-05-06 17:45 38.79401 1.16734 2987 ft 214 kts 76°
2026-05-06 17:46 38.79686 1.17948 2981 ft 215 kts 72°
2026-05-06 17:46 38.80189 1.19645 2918 ft 187 kts 66°
2026-05-06 17:46 38.80752 1.21075 2458 ft 177 kts 64°
2026-05-06 17:46 38.81339 1.22397 2391 ft 169 kts 60°
2026-05-06 17:47 38.81977 1.23732 2394 ft 180 kts 60°
2026-05-06 17:47 38.82613 1.25068 2403 ft 169 kts 61°
2026-05-06 17:47 38.83159 1.26343 2385 ft 159 kts 63°
2026-05-06 17:47 38.83674 1.27575 1960 ft 159 kts 66°
2026-05-06 17:48 38.84060 1.28913 1520 ft 158 kts 71°
2026-05-06 17:48 38.84436 1.30165 1493 ft 149 kts 65°
2026-05-06 17:48 38.84907 1.31382 1361 ft 149 kts 64°
2026-05-06 17:48 38.85337 1.32446 1194 ft 125 kts 64°
2026-05-06 17:49 38.85713 1.33393 864 ft 107 kts 64°
2026-05-06 17:49 38.86038 1.34170 624 ft 100 kts 65°
2026-05-06 17:49 38.86348 1.34998 393 ft 103 kts 65°
2026-05-06 17:49 38.86666 1.35807 164 ft 98 kts 63°
2026-05-06 17:50 38.86953 1.36493 29 ft 72 kts 65°
2026-05-06 17:50 38.87099 1.36870 24 ft 27 kts 63°
2026-05-06 17:50 38.87202 1.37103 25 ft 16 kts 53°
2026-05-06 17:50 38.87259 1.37080 24 ft 12 kts 273°
2026-05-06 17:51 38.87261 1.36985 23 ft 11 kts 274°
2026-05-06 17:51 38.87306 1.36926 22 ft 11 kts 28°
2026-05-06 17:51 38.87331 1.36971 22 ft 0 kts 61°
2026-05-06 17:52 38.87360 1.37044 22 ft 20 kts 63°
2026-05-06 17:52 38.87426 1.37202 22 ft 21 kts 61°
2026-05-06 17:52 38.87496 1.37371 23 ft 21 kts 63°
2026-05-06 17:52 38.87565 1.37525 23 ft 14 kts 50°
2026-05-06 17:53 38.87636 1.37536 23 ft 10 kts 33°
2026-05-06 17:53 38.87658 1.37613 23 ft 10 kts 16°
2026-05-06 17:53 38.87679 1.37606 23 ft 4 kts 335°
2026-05-06 17:53 38.87682 1.37604 23 ft 0 kts 334°